sat.trackr.live / text

‹ back to catalog

STARLINK-6221

NORAD 56484 · 2023-064AN

PAYLOAD ACTIVE UNKNOWN

§ Identity

Operator
Country
US
Launch date
2023-05-10
Launch site
AFWTR
Launch vehicle
Mass (kg)
RCS (m²)

Purposes: comms

External: N2YO · Heavens-Above · Gunter

§ Orbital elements

Epoch: 2026-09-20T22:00:03.000096Z

Period
95.74 min
Inclination
70.0008°
Eccentricity
0.0003566
Mean motion
15.04011732 rev/d
Perigee alt
552.1 km
Apogee alt
557.0 km
Semi-major
6,932.7 km
B*
1.5975e-4
RAAN
352.0802°
Arg perigee
264.2812°
Mean anomaly
177.4679°
Rev number
577

§ Raw data

STARLINK-62211 56484U 23064AN  26263.91670139  .00002115  00000+0  15975-3 0  99952 56484  70.0008 352.0802 0003566 264.2812 177.4679 15.04011732  5773

JSON: /api/v1/satellites/56484 · /tle

For live sub-satellite position, see the globe view (requires WebGL).

§ Visibility from observer

Set your observer location to see the next 7 days of passes ≥ 10°. The values pass through the URL so the page stays shareable.

No JS? Fill the form by hand. The geolocation button needs JavaScript.